Regional Weather Roundup
Issued by NWS

Home | Current Version | Previous Version | Graphics & Text | Print | Product List | Glossary On
Versions: 1 2 3 4 5 6 7 8 9 10 11 12 13 14 15 16 17 18 19 20 21 22 23 24 25 26 27 28 29 30 31 32 33 34 35 36 37 38 39 40 41 42 43 44 45 46 47 48 49 50
405
ASUS43 KDTX 241410
RWRMI
MICHIGAN HOURLY REGIONAL WEATHER ROUNDUP
NATIONAL WEATHER SERVICE DETROIT/PONTIAC MI
ISSUED BY NATIONAL WEATHER SERVICE GRAND RAPIDS MI
900 AM EST FRI FEB 24 2017

NOTE: "FAIR" INDICATES FEW OR NO CLOUDS BELOW 12,000 FEET WITH NO
SIGNIFICANT WEATHER AND/OR OBSTRUCTION TO VISIBILITY.

MIZ047>049-052>055-059>063-066>070-074>076-081>083-241500-
SOUTHEAST LOWER MICHIGAN

CITY           SKY/WX    TMP DP  RH WIND       PRES   REMARKS
ADRIAN         FOG       41  41 100 SE3       29.61F VSB 1/4
ALMA           CLOUDY    33  32  98 E13G20    29.64F FOG     WCI  24
ANN ARBOR      FOG       41  41 100 E6        29.60F VSB 1/4
BAD AXE        CLOUDY    36  36  99 E7G16     29.66F FOG     WCI  30
DETROIT CITY   FOG       42  42 100 NE3       29.63F VSB 1/4
DETROIT        FOG       43  43 100 NE6       29.63F VSB 1/8
FLINT          CLOUDY    38  37  97 E13       29.62F FOG     WCI  30
GROSSE ILE     FOG       43  43  99 S5        29.62F VSB 1
HILLSDALE      FOG       43  43 100 SE7       29.59R VSB 1/4
HOWELL         FOG       40  39  95 E3        29.60F VSB 1/4

CITY           SKY/WX    TMP DP  RH WIND       PRES   REMARKS
JACKSON        FOG       43  42  97 SE6       29.59S VSB 1/4
LANSING        FOG       38  36  92 NE8       29.62R VSB 1/2 WCI  32
MASON          FOG       40  40  99 E3        29.60R VSB 1/4
MONROE         FOG       40  40 100 SE3       29.60F VSB<1/4
MT. CLEMENS    CLOUDY    41  41 100 NE7       29.62F FOG
PONTIAC        DRZL/FOG  39  38  96 E12       29.60F VSB 1/8 WCI  32
PORT HOPE        N/A     37  36  96 NE18      29.68S WCI  27
PORT HURON     CLOUDY    37  37 100 NE5       29.66S FOG     WCI  34
TRI CITIES     LGT RAIN  35  34  96 NE21      29.65F VSB 1   WCI  24
YPSILANTI      FOG       44  44 100 E5        29.62F VSB 1/4
$$
MIZ043>046-050>051-056>058-064>065-071>073-077>080-241500-
SOUTHWEST LOWER MICHIGAN

CITY           SKY/WX    TMP DP  RH WIND       PRES   REMARKS
BATTLE CREEK   LGT RAIN  43  43 100 E6        29.58R VSB 3/4
BENTON HARBOR  CLOUDY    56  53  90 SE12      29.44R
BIG RAPIDS     LGT SNOW  35  33  94 N6        29.64R WCI  30
COLDWATER      CLOUDY    51  51 100 S8        29.58R FOG
HOLLAND        CLOUDY    38  36  92 E12       29.52F WCI  30
GRAND RAPIDS   TSTM      35  33  92 E16G31    29.56S FOG     WCI  25
KALAMAZOO      TSTM      45  42  89 SE10      29.53F VSB 3/4
MARSHALL       FOG       43  43  98 CALM      29.58R VSB 1/2
MOUNT PLEASANT MIX PCPN  33  32  98 E7        29.62F WCI  26
MUSKEGON       CLOUDY    35  33  92 E15       29.57R WCI  25
STURGIS        CLOUDY    53  51  94 SE8       29.55R
$$
MIZ016>042-241500-
NORTHERN LOWER MICHIGAN

CITY           SKY/WX    TMP DP  RH WIND       PRES   REMARKS
ALPENA         LGT RAIN  33  33 100 NE10G21   29.74F WCI  25
BEAVER ISLAND  LGT SNOW  27  26  96 NE10G18   29.78S WCI  17
BELLAIRE       LGT SNOW  30  28  90 N7        29.71S WCI  23
CADILLAC       LGT SNOW  32  30  94 E17       29.62F WCI  20
CHARLEVOIX     CLOUDY    29  28  93 NE10      29.76R WCI  20
GAYLORD        MIX PCPN  30  25  81 NE16G23   29.67F WCI  19
HOUGHTON LAKE  FRZ RAIN  32  31  96 NE10      29.65F FOG     WCI  24
MANISTEE       MIX PCPN  32  30  92 E15G25    29.59F FOG     WCI  22
OSCODA         LGT SNOW  36  34  95 NE13      29.73S WCI  27
PELLSTON       MIX PCPN  29  25  85 NE10      29.75F FOG     WCI  20
TRAVERSE CITY  FRZ RAIN  31  28  89 NE12      29.67F FOG     WCI  22
LUDINGTON      FLURRIES  32  32  99 E10       29.57F WCI  24
$$
MIZ007>008-015-241500-
EASTERN UPPER MICHIGAN

CITY           SKY/WX    TMP DP  RH WIND       PRES   REMARKS
KINROSS        LGT SNOW  27  25  93 NE12      29.79F FOG     WCI  16
MACKINAC ISLAN LGT SNOW  27  27 100 NE16G23   29.77F WCI  15
NEWBERRY       CLOUDY    26  18  73 N15       29.80F WCI  14
S. S. MARIE    FLURRIES  29  21  72 NE9       29.81F WCI  20
$$
MIZ004>006-011>014-085-241500-
CENTRAL UPPER MICHIGAN

CITY           SKY/WX    TMP DP  RH WIND       PRES   REMARKS
MANISTIQUE     LGT SNOW  27  22  83 N13G21    29.80R VSB 1   WCI  16
ESCANABA       LGT SNOW  27  25  93 NE15G21   29.79F VSB 3/4 WCI  15
MENOMINEE      SNOW      28  26  92 NE17        N/A  VSB 1/2 WCI  16
SAWYER-GWINN   CLOUDY    23  19  86 N20       29.87R WCI   8
$$
MIZ001>003-009>011-084-241500-
WESTERN UPPER MICHIGAN

CITY           SKY/WX    TMP DP  RH WIND       PRES   REMARKS
IRON MOUNTAIN  SNOW      24  20  84 N13       29.80R VSB 1/4 WCI  12
HOUGHTON       LGT SNOW  19  12  74 NE13      29.91F WCI   6
COPPER HARBOR    N/A     21  17  84 E20G26    29.96F WCI   6
IRONWOOD       LGT SNOW  21  18  86 NE15G21   29.87F FOG     WCI   8
$$

ABBREVIATIONS USED IN REMARKS
   TC - TEMPERATURE IN CELSIUS
  WCI - WIND CHILL INDEX
   HX - HEAT INDEX
  VSB - VISIBILITY





USA.gov is the U.S. government's official web portal to all federal, state and local government web resources and services.